Temperature
29 29 29 29 29 29 29 30 29 29 29 29 28 27 26 25 24 23 23 22 21 21 20 20 19 19 19 18 18 18 18 17 17 17 17 17 16 16 16 16 16 15 15 15
28 29 29 29 29 29 29 29 29 29 29 28 27 26 25 24 23 23 22 21 21 20 20 19 19 19 19 18 18 18 17 17 17 17 16 16 16 16 16 15 15 15 15 15
28 28 28 28 29 29 29 29 29 29 28 27 26 25 24 23 23 22 21 21 20 20 19 19 19 18 18 18 18 18 17 17 17 16 16 16 16 16 15 15 15 15 14 14
27 27 26 28 29 29 28 28 28 27 27 26 25 24 24 23 22 21 21 20 20 19 19 19 18 18 18 18 17 17 17 16 16 16 16 16 16 15 15 15 15 14 14 14
27 27 27 28 28 28 28 27 27 27 26 25 25 24 24 22 21 21 20 19 19 19 19 18 18 18 17 17 17 17 16 16 16 16 15 15 15 15 15 15 14 14 14 14
26 26 26 27 27 27 27 26 26 26 25 24 24 25 24 21 20 20 19 19 19 18 18 18 17 17 17 17 16 16 16 16 15 15 15 15 15 15 15 14 14 14 14 14
26 26 27 27 26 26 26 25 25 24 24 23 24 24 22 20 19 19 18 18 18 17 17 17 17 17 16 16 16 16 15 15 15 15 15 15 15 15 14 14 14 14 14 14
25 25 25 25 26 25 24 23 23 23 22 22 22 21 20 19 18 18 17 17 17 17 16 16 16 16 16 16 15 15 15 15 15 15 15 15 14 14 14 14 14 14 13 13
25 25 23 23 23 22 21 21 21 22 21 21 21 20 19 18 18 17 17 16 16 16 16 16 16 16 16 15 15 15 15 15 14 14 14 14 14 14 14 14 14 14 13 13
23 23 22 22 21 20 20 20 20 20 20 20 20 19 18 18 17 16 16 16 16 16 16 15 15 15 15 15 15 14 14 14 14 14 14 14 14 14 13 13 13 13 13 13
22 22 22 21 20 20 19 20 20 19 19 19 19 18 18 17 17 16 16 15 15 15 15 15 15 15 15 15 14 14 14 14 14 14 13 13 13 13 13 13 13 12 12 12
22 21 21 21 19 19 19 19 18 18 18 18 18 18 17 17 16 16 15 15 15 15 15 15 15 14 14 14 14 14 14 14 14 14 13 13 13 13 13 13 12 12 12 12
19 19 19 19 18 18 18 18 18 18 18 17 17 17 17 16 16 15 15 15 15 15 15 15 14 14 14 14 14 14 14 13 13 13 13 13 13 13 13 13 12 12 12 12
17 17 18 18 17 17 17 17 17 17 17 17 16 16 16 16 15 15 15 15 14 14 14 14 14 14 14 13 13 13 13 13 13 13 13 13 13 12 12 12 12 12 12 11
17 17 17 17 17 17 17 16 16 16 16 16 16 16 16 15 15 15 14 14 14 14 14 14 14 13 13 13 13 13 13 13 13 12 12 12 12 12 12 12 12 12 11 11
16 16 16 16 16 16 16 16 16 16 16 15 15 15 15 15 14 14 14 14 14 14 13 13 13 13 13 13 13 13 12 12 12 12 12 12 12 12 12 11 11 11 11 11
16 16 16 16 16 16 16 16 16 16 15 15 15 14 14 14 14 14 14 13 13 13 13 13 13 13 13 13 12 12 12 12 12 12 12 12 12 11 11 11 11 11 11 10
16 16 16 16 16 16 16 15 15 15 15 14 14 14 14 14 14 13 13 13 13 13 13 13 13 13 12 12 12 12 12 12 11 11 11 11 11 11 11 11 11 10 10 10
15 15 15 15 15 15 15 15 14 14 14 14 14 14 13 13 13 13 13 13 12 12 13 13 13 12 12 12 12 11 11 11 11 11 11 11 10 10 10 10 10 10 10 10
14 14 14 14 14 14 14 14 14 13 13 13 13 13 13 13 13 12 12 12 12 12 12 12 12 12 11 11 11 11 11 11 11 11 11 10 10 10 10 10 10 10 9 9
14 14 14 14 14 14 14 13 13 13 13 13 13 13 13 13 12 12 12 12 12 12 12 12 12 11 11 11 11 11 11 11 11 11 11 10 10 10 10 9 9 9 9 9
14 13 13 13 13 13 13 13 13 13 13 13 13 12 12 12 12 12 12 12 12 12 12 11 11 11 11 11 11 11 11 11 11 11 10 10 10 10 9 9 9 9 9 8
13 13 13 13 13 13 13 13 13 13 12 12 12 12 12 12 12 12 12 12 12 12 11 11 11 11 11 11 11 10 10 10 10 10 10 10 9 9 9 9 9 8 8 8
12 12 12 12 12 12 12 12 12 12 12 12 12 12 12 12 12 12 12 11 11 11 11 11 11 11 10 10 10 10 10 10 10 10 10 10 9 9 9 9 8 8 8 8
12 12 12 12 12 12 12 12 12 12 12 12 12 12 12 12 11 11 11 11 11 11 11 11 11 10 10 10 10 10 10 10 10 10 9 9 9 9 9 8 8 8 8 7
12 12 12 12 12 12 12 12 12 12 12 12 12 12 12 11 11 11 11 11 10 10 10 10 10 10 10 9 9 9 9 9 9 9 9 9 9 8 8 8 8 8 7 7
11 12 12 12 12 12 12 12 12 12 12 12 12 11 11 11 11 11 11 10 10 10 10 10 10 10 9 9 9 9 9 9 9 9 8 8 8 8 8 8 8 7 7 7
Wind_Speed
9 8 8 10 10 10 11 10 10 8 7 4 3 2 1 0 1 2 2 3 3 2 2 2 1 1 1 2 2 3 4 4 3 3 3 2 2 2 2 3 2 2 3 3
9 9 10 11 11 10 11 11 11 10 7 2 1 1 1 1 1 1 2 1 1 2 2 2 2 1 2 2 2 2 2 2 2 2 2 2 2 2 2 3 3 3 3 3
10 8 10 12 10 10 9 8 9 9 4 0 1 2 2 1 1 1 1 0 1 2 2 2 2 2 2 3 3 2 2 1 1 1 2 2 2 2 2 3 3 3 3 4
9 8 12 6 2 5 6 4 4 4 2 2 2 2 2 1 1 0 0 1 0 0 1 2 2 3 2 2 2 2 1 0 1 1 1 2 2 2 3 3 3 4 4 4
9 12 11 7 5 5 7 6 3 3 2 1 2 3 2 2 1 0 0 0 0 0 1 2 2 3 3 2 2 1 0 1 1 2 2 2 3 3 3 4 4 4 4 4
9 12 11 4 2 2 5 7 2 2 2 1 2 4 0 2 1 1 1 1 1 1 2 2 2 2 2 1 1 1 1 1 2 2 2 3 3 4 4 4 5 5 4 4
12 12 8 2 2 5 8 2 2 1 1 2 2 3 2 2 1 1 1 1 2 2 1 1 1 1 1 1 0 1 1 1 1 2 2 3 3 4 4 4 4 5 5 5
10 12 7 2 3 3 2 3 2 1 1 1 1 1 1 1 1 1 1 1 1 1 1 1 1 1 1 1 1 1 1 2 3 3 3 2 3 3 4 4 4 4 5 5
5 3 2 2 2 2 3 3 3 3 3 2 1 0 0 1 1 1 0 0 0 1 1 0 0 0 1 1 1 2 2 3 3 3 3 3 3 4 4 4 4 4 4 5
4 3 1 1 1 3 4 4 4 4 4 2 2 1 0 1 1 0 0 0 0 0 0 0 1 1 1 2 2 2 2 3 3 3 3 3 3 4 4 4 4 5 5 5
6 4 3 3 3 5 5 5 5 4 3 3 2 2 1 1 1 1 0 1 1 1 1 1 1 1 2 3 3 3 3 3 3 3 3 3 3 3 3 3 3 4 5 5
5 3 4 4 4 5 5 5 4 3 4 3 3 3 2 2 1 1 1 1 1 1 1 2 2 2 2 3 3 3 3 3 3 2 2 3 3 2 1 2 2 3 4 5
4 4 5 4 4 5 5 4 4 3 3 3 2 2 2 2 2 2 2 2 2 2 2 2 2 2 2 3 2 3 3 3 3 3 3 3 3 3 3 3 5 6 6 5
3 3 4 4 4 4 4 3 2 2 2 2 2 2 2 2 2 2 2 2 2 2 2 2 2 2 2 2 3 4 4 3 3 3 3 3 3 4 4 5 4 4 4 5
4 4 4 4 4 3 2 1 1 1 1 1 1 1 2 2 3 2 2 2 2 2 2 1 1 2 2 3 3 4 3 2 2 2 3 3 3 4 4 5 5 5 5 2
4 3 3 3 2 2 2 2 2 2 1 1 1 1 1 2 2 2 2 2 2 2 1 1 1 2 2 3 3 2 2 1 2 3 3 3 3 4 4 4 5 5 5 5
3 3 2 2 2 2 2 2 2 2 1 1 1 1 1 1 1 1 1 1 1 1 0 1 2 2 2 3 3 2 1 1 3 3 3 3 3 4 4 4 5 5 5 4
3 3 3 3 3 2 2 2 1 1 1 1 1 1 1 2 1 1 1 0 0 1 1 1 2 2 1 2 2 2 2 2 2 2 2 3 3 3 4 5 5 5 5 4
3 3 3 3 3 2 2 1 1 0 0 1 2 2 1 1 0 0 1 1 1 1 2 2 2 2 2 1 2 2 2 2 1 1 2 2 3 4 4 4 5 5 5 5
2 2 2 2 3 3 2 1 1 1 1 1 1 2 1 1 1 1 1 1 2 2 2 2 2 2 2 2 3 2 2 2 2 2 2 3 3 4 4 4 4 5 5 5
2 2 1 2 2 2 2 2 2 2 1 1 2 2 2 1 1 1 2 2 1 2 2 2 2 2 2 2 4 2 2 2 2 2 3 3 3 4 4 4 4 5 5 5
2 2 2 2 2 2 2 2 3 3 2 2 2 2 2 2 2 2 2 2 2 2 2 2 2 2 3 4 2 2 2 2 2 2 2 3 3 4 4 4 4 5 5 5
2 2 2 3 3 2 3 3 4 3 3 3 3 3 3 2 2 2 2 1 2 2 3 2 1 2 4 3 1 2 2 2 2 2 2 2 3 3 4 4 4 5 5 5
2 3 3 3 3 3 3 3 3 2 3 3 3 3 3 2 2 2 2 0 1 2 2 0 1 2 5 2 1 2 2 2 3 3 3 2 2 3 3 4 4 4 4 5
3 2 2 3 3 3 3 3 3 3 3 2 3 3 2 2 2 1 1 1 1 2 1 1 3 4 3 2 2 2 2 2 3 4 3 3 3 3 3 3 4 4 4 4
3 2 2 3 3 3 3 3 2 2 2 2 2 2 1 1 1 1 2 2 2 2 2 2 2 3 2 1 2 2 2 2 2 3 3 3 3 3 3 3 4 4 4 4
2 2 2 2 2 3 3 3 3 3 2 2 2 1 1 1 1 2 2 2 2 2 2 2 2 2 2 2 2 2 2 2 2 2 2 3 3 3 3 3 3 3 4 4
Wind_Direction
258 268 263 256 251 243 251 268 278 286 289 288 268 273 283 179 156 149 150 154 158 155 140 149 162 173 177 184 183 189 194 198 202 207 217 231 239 248 253 254 259 272 283 289
248 248 248 252 251 249 251 259 263 268 278 320 299 205 183 161 154 139 134 142 161 158 147 156 161 154 145 162 166 168 180 192 208 214 219 228 241 247 254 259 269 273 280 286
251 248 249 246 245 244 245 255 262 269 281 186 225 211 208 188 168 135 73 88 144 160 151 149 151 149 157 157 150 152 158 208 269 249 249 261 267 263 259 258 262 267 275 279
250 244 246 254 237 239 245 257 268 286 291 259 240 216 187 154 163 186 295 262 206 162 139 133 111 111 116 127 135 143 149 219 273 279 283 271 266 270 271 268 266 268 274 281
243 242 245 240 228 234 245 247 269 268 272 260 229 203 182 99 48 324 16 14 90 157 136 115 107 103 101 99 100 100 72 330 304 303 302 297 291 283 279 273 269 267 266 270
242 250 252 243 181 237 251 244 242 234 221 197 207 245 75 64 34 360 22 51 86 103 115 114 105 109 116 109 91 49 4 332 312 301 293 292 296 292 286 276 273 275 279 277
241 248 251 258 211 216 240 278 65 142 186 210 242 317 34 52 49 40 66 94 103 112 108 95 92 116 151 166 247 328 326 319 305 297 281 281 287 291 295 291 292 289 288 283
237 245 244 74 194 229 341 21 18 346 295 271 310 40 65 71 69 78 91 107 101 98 77 69 78 141 181 218 246 245 265 289 294 297 296 297 291 293 295 292 284 282 285 290
249 249 60 73 75 34 356 333 330 312 302 281 254 237 75 73 79 101 123 71 73 89 79 30 346 232 221 257 266 249 240 253 275 291 295 297 287 286 285 283 290 298 301 304
244 227 212 163 18 337 326 314 305 303 296 280 269 255 209 179 151 130 25 292 213 172 168 304 301 247 238 260 257 244 246 257 263 276 288 293 294 298 298 306 308 311 315 311
243 244 243 242 307 323 322 315 312 315 292 270 251 229 223 220 194 191 221 283 270 253 243 261 263 255 254 253 248 247 252 260 267 280 296 297 303 313 305 318 316 309 312 313
256 252 273 281 303 313 313 310 307 296 289 261 224 218 228 224 206 205 216 241 258 261 261 269 270 269 264 258 252 256 258 262 269 281 290 290 296 296 319 259 226 239 268 293
280 299 300 292 296 302 300 301 299 284 274 258 225 213 226 226 205 198 206 228 244 256 264 266 269 271 265 261 261 260 263 265 273 282 283 287 292 295 296 254 222 225 230 243
295 294 282 287 297 300 298 297 296 288 277 252 220 204 213 214 206 209 225 239 244 254 261 264 276 290 288 274 269 264 263 256 259 273 283 289 292 296 298 302 304 299 240 210
289 280 279 291 291 295 297 300 304 281 271 241 205 202 216 214 214 225 240 247 247 248 258 270 286 304 306 285 269 267 270 269 268 278 281 286 291 293 298 304 307 311 317 300
284 273 267 264 273 283 281 278 286 267 254 262 267 264 253 232 217 222 233 228 223 229 242 284 299 303 297 277 263 256 263 311 292 280 284 291 294 300 308 313 310 311 314 325
254 260 268 270 267 267 271 277 279 273 262 272 286 285 243 191 172 162 190 223 221 222 261 288 297 304 290 267 255 245 241 219 224 259 277 291 295 299 305 304 307 310 312 326
260 262 268 266 272 274 281 286 278 285 271 238 139 163 178 178 178 172 192 232 231 269 298 311 315 302 286 280 265 251 241 246 250 275 296 306 309 306 302 301 307 309 312 319
252 262 269 273 273 271 274 274 277 305 280 175 174 187 198 208 219 249 216 203 223 261 303 320 302 276 282 289 277 250 245 251 266 288 302 304 296 304 307 312 314 311 310 314
253 268 269 265 270 268 257 241 229 240 247 210 185 173 170 178 219 240 238 248 266 285 295 301 286 285 281 271 265 251 248 258 268 275 286 292 298 307 313 318 314 310 311 312
261 265 265 259 264 258 245 236 232 242 247 221 204 201 206 215 230 237 242 268 318 327 300 270 266 280 277 274 246 260 264 267 273 275 283 292 300 307 314 321 319 313 310 312
260 255 262 253 238 246 253 248 241 242 232 226 217 212 226 237 240 251 260 279 290 300 281 278 290 341 319 282 248 266 274 275 280 282 288 295 298 301 306 313 312 311 311 312
269 261 253 248 244 244 243 242 238 226 217 218 215 212 228 245 256 262 267 285 284 282 271 290 360 11 303 275 281 281 293 295 294 297 293 297 302 305 308 312 313 312 311 310
258 249 248 248 243 239 238 237 229 216 210 212 204 198 210 236 265 278 288 324 311 275 278 40 122 254 263 255 276 294 301 304 303 300 302 306 304 303 309 315 315 310 312 316
276 267 256 244 238 232 222 209 200 201 205 202 195 199 216 231 250 277 285 282 256 238 250 198 205 240 250 285 287 287 290 310 311 310 315 319 316 314 314 313 313 320 327 328
272 263 257 250 253 240 214 204 203 203 198 200 203 207 219 221 227 241 245 248 252 249 247 228 218 232 248 261 272 290 309 315 309 306 318 312 311 315 321 325 323 325 330 334
258 246 237 235 226 221 211 200 203 209 199 202 208 216 235 239 242 251 250 244 238 243 244 241 241 240 255 272 285 298 310 315 311 307 311 311 311 313 321 324 329 334 334 339
Height
1492 1490 1491 1492 1492 1492 1493 1492 1494 1492 1491 1492 1494 1497 1500 1502 1504 1506 1507 1508 1508 1509 1510 1511 1511 1512 1513 1514 1514 1514 1515 1515 1515 1515 1515 1515 1515 1514 1514 1513 1513 1511 1511 1509
1496 1491 1491 1492 1490 1490 1490 1489 1489 1489 1491 1491 1495 1498 1500 1502 1504 1505 1506 1507 1508 1508 1509 1509 1510 1510 1511 1512 1512 1512 1513 1513 1513 1513 1513 1512 1512 1512 1511 1511 1510 1509 1508 1507
1497 1491 1493 1496 1488 1487 1487 1486 1487 1489 1490 1493 1496 1498 1500 1502 1503 1505 1505 1506 1507 1507 1507 1508 1508 1509 1509 1510 1510 1510 1511 1511 1511 1511 1511 1510 1510 1510 1509 1508 1508 1507 1506 1505
1495 1499 1508 1489 1482 1483 1485 1487 1487 1489 1491 1494 1496 1498 1500 1501 1503 1504 1504 1505 1506 1506 1506 1507 1508 1509 1509 1509 1510 1509 1509 1509 1509 1508 1508 1508 1508 1507 1506 1506 1505 1504 1503 1502
1494 1497 1493 1486 1483 1484 1486 1489 1488 1490 1492 1494 1495 1496 1498 1500 1502 1503 1503 1504 1504 1505 1505 1506 1506 1507 1508 1508 1509 1509 1509 1509 1508 1507 1507 1506 1505 1505 1504 1504 1503 1502 1500 1499
1494 1498 1498 1486 1483 1485 1487 1491 1489 1491 1492 1494 1494 1493 1496 1499 1501 1501 1502 1502 1503 1503 1504 1504 1505 1506 1506 1507 1507 1507 1508 1507 1507 1506 1505 1504 1503 1502 1502 1501 1500 1499 1498 1496
1492 1493 1486 1482 1484 1486 1494 1492 1491 1492 1493 1494 1495 1495 1498 1499 1500 1500 1501 1501 1501 1502 1503 1503 1504 1504 1504 1505 1505 1505 1505 1505 1505 1504 1503 1502 1501 1499 1498 1498 1497 1496 1495 1494
1490 1494 1491 1485 1485 1488 1491 1492 1492 1493 1494 1495 1496 1497 1498 1498 1499 1499 1500 1500 1501 1501 1501 1502 1502 1502 1502 1503 1503 1503 1503 1503 1502 1501 1501 1500 1498 1497 1496 1495 1494 1493 1492 1491
1485 1487 1488 1488 1490 1492 1493 1493 1493 1494 1494 1495 1495 1496 1497 1497 1498 1498 1499 1499 1499 1499 1499 1500 1501 1501 1501 1501 1501 1500 1500 1500 1499 1499 1498 1497 1496 1494 1493 1493 1492 1491 1490 1489
1487 1485 1488 1490 1492 1492 1493 1493 1493 1494 1494 1494 1495 1495 1495 1496 1496 1497 1497 1498 1498 1497 1497 1498 1498 1499 1498 1498 1498 1498 1497 1497 1497 1496 1495 1494 1493 1492 1491 1491 1490 1489 1488 1486
1486 1487 1489 1489 1491 1491 1491 1491 1491 1492 1492 1493 1493 1494 1494 1494 1495 1495 1495 1496 1496 1496 1496 1496 1496 1496 1495 1495 1495 1494 1494 1494 1494 1494 1493 1492 1491 1489 1488 1487 1487 1486 1485 1484
1483 1487 1488 1488 1490 1490 1490 1490 1490 1490 1490 1491 1491 1492 1493 1493 1493 1493 1493 1494 1494 1494 1494 1494 1494 1493 1493 1493 1492 1492 1492 1492 1492 1492 1491 1490 1488 1487 1485 1485 1484 1482 1481 1480
1487 1487 1488 1488 1489 1489 1489 1489 1489 1489 1489 1489 1489 1490 1491 1491 1491 1491 1491 1492 1492 1492 1492 1492 1491 1491 1490 1490 1490 1489 1489 1489 1489 1489 1488 1487 1486 1485 1484 1483 1481 1479 1478 1476
1487 1487 1487 1487 1487 1487 1487 1487 1487 1487 1488 1488 1488 1488 1488 1489 1489 1489 1489 1490 1490 1490 1490 1489 1489 1488 1488 1487 1487 1487 1487 1486 1486 1486 1486 1485 1484 1483 1482 1480 1479 1477 1476 1473
1486 1486 1486 1485 1485 1486 1486 1485 1485 1486 1486 1486 1486 1486 1486 1487 1487 1487 1487 1488 1488 1488 1488 1487 1487 1486 1485 1485 1484 1484 1485 1484 1483 1483 1483 1483 1482 1481 1479 1478 1477 1475 1473 1471
1484 1484 1484 1484 1484 1484 1485 1484 1484 1484 1485 1485 1485 1485 1485 1485 1485 1485 1486 1486 1485 1485 1485 1485 1484 1484 1483 1482 1482 1482 1482 1481 1481 1481 1481 1480 1479 1478 1477 1476 1474 1473 1471 1469
1482 1482 1482 1483 1483 1483 1483 1484 1484 1483 1484 1484 1484 1484 1484 1484 1484 1484 1484 1484 1484 1484 1484 1483 1482 1482 1481 1480 1480 1480 1479 1478 1477 1477 1477 1477 1476 1475 1474 1473 1472 1470 1469 1466
1481 1481 1482 1482 1482 1482 1482 1482 1482 1482 1482 1482 1482 1482 1483 1483 1482 1482 1483 1483 1483 1482 1482 1481 1481 1480 1479 1478 1478 1477 1477 1476 1476 1476 1475 1474 1473 1473 1472 1470 1469 1468 1466 1464
1479 1480 1480 1481 1481 1481 1481 1480 1480 1480 1480 1480 1480 1481 1481 1482 1481 1482 1481 1481 1481 1480 1480 1479 1478 1478 1477 1476 1476 1475 1475 1475 1474 1474 1473 1472 1471 1470 1469 1468 1466 1465 1463 1461
1477 1478 1478 1479 1479 1479 1479 1479 1479 1479 1479 1480 1479 1479 1480 1480 1480 1480 1480 1480 1480 1479 1478 1478 1477 1476 1475 1474 1474 1474 1474 1473 1473 1472 1471 1470 1469 1468 1467 1465 1464 1462 1461 1459
1475 1476 1476 1476 1477 1477 1478 1478 1478 1478 1478 1478 1478 1478 1478 1478 1479 1479 1479 1479 1478 1477 1476 1475 1475 1474 1473 1472 1472 1472 1472 1472 1471 1470 1469 1468 1467 1466 1465 1463 1461 1460 1459 1457
1474 1474 1475 1475 1475 1475 1475 1476 1476 1476 1476 1477 1477 1477 1477 1477 1478 1478 1478 1477 1476 1475 1475 1474 1473 1472 1471 1470 1470 1470 1470 1470 1469 1468 1467 1466 1465 1464 1462 1461 1459 1458 1457 1455
1472 1472 1473 1473 1473 1473 1473 1474 1474 1474 1474 1474 1475 1475 1476 1476 1476 1476 1476 1475 1474 1473 1473 1472 1471 1469 1468 1469 1469 1468 1468 1467 1467 1466 1465 1465 1463 1462 1461 1459 1458 1456 1455 1453
1470 1470 1470 1470 1470 1470 1471 1471 1472 1472 1472 1472 1473 1473 1474 1474 1474 1474 1474 1473 1472 1471 1471 1469 1468 1467 1467 1467 1467 1467 1466 1465 1465 1464 1463 1462 1461 1460 1459 1458 1456 1455 1453 1451
1468 1468 1467 1468 1468 1468 1468 1469 1469 1470 1470 1470 1471 1471 1472 1472 1472 1472 1472 1471 1470 1469 1468 1467 1466 1465 1465 1465 1465 1464 1463 1463 1462 1461 1461 1460 1459 1458 1457 1456 1455 1453 1451 1449
1466 1466 1466 1466 1466 1467 1467 1468 1468 1468 1468 1469 1469 1470 1470 1470 1470 1470 1469 1469 1468 1467 1466 1465 1464 1464 1464 1463 1462 1461 1461 1460 1460 1459 1458 1457 1457 1456 1455 1454 1452 1451 1449 1447
1464 1464 1464 1464 1465 1465 1466 1466 1466 1467 1466 1467 1467 1468 1468 1468 1467 1467 1467 1467 1466 1465 1465 1464 1463 1462 1461 1461 1460 1460 1459 1458 1457 1457 1456 1455 1454 1453 1452 1451 1450 1449 1447 1445